Location: Chircca
(13.7944°S, 72.0608°W)
Time: 06:24:53
(UTC+00:00)

Cosmos 2298 Rocket - Pass Details

Date: 14 July 2020
Orbit: 775 x 784 km, 74.0° (Epoch: 14 August)

Event Time Altitude Azimuth Distance (km) Brightness Sun altitude
Rises 00:06:42 0° 357° (N) 3,253 7.5 -21.6°
Reaches altitude 10° 00:09:07 10° 2° (N) 2,331 6.7 -22.2°
Enters shadow 00:14:14 54° 76° (ENE) 948 4.1 -23.4°
